| time (UTC) | temp F | wind direction | speed MPH | gust MPH | rain 1hr in | rain 24hr in | rain mn in | humidity % | barometer mb |
| 20260504001947 | 66 | 167 | 1.0 | 4.0 | 0.00 | 0.01 | 0.01 | 48 | 1005.3 |
| 20260504001047 | 66 | 173 | 2.0 | 5.0 | 0.00 | 0.01 | 0.01 | 48 | 1005.4 |
| 20260504000147 | 66 | 194 | 1.0 | 6.0 | 0.00 | 0.01 | 0.01 | 47 | 1005.3 |
| 20260503235247 | 66 | 148 | 2.0 | 4.0 | 0.00 | 0.02 | 0.01 | 47 | 1005.3 |
| 20260503234347 | 67 | 139 | 1.0 | 4.0 | 0.00 | 0.02 | 0.01 | 46 | 1005.3 |
| 20260503233447 | 67 | 154 | 1.0 | 5.0 | 0.00 | 0.02 | 0.01 | 46 | 1005.4 |
| 20260503232547 | 67 | 144 | 2.0 | 5.0 | 0.00 | 0.02 | 0.01 | 45 | 1005.3 |
| 20260503231647 | 68 | 159 | 2.0 | 5.0 | 0.00 | 0.02 | 0.01 | 44 | 1005.4 |
| 20260503230747 | 68 | 169 | 2.0 | 5.0 | 0.00 | 0.02 | 0.01 | 44 | 1005.4 |
| 20260503225847 | 68 | 181 | 2.0 | 6.0 | 0.00 | 0.02 | 0.01 | 44 | 1005.6 |
| 20260503224947 | 68 | 162 | 2.0 | 6.0 | 0.00 | 0.02 | 0.01 | 43 | 1005.7 |
| 20260503224047 | 67 | 163 | 2.0 | 5.0 | 0.00 | 0.02 | 0.01 | 45 | 1005.6 |
| 20260503223147 | 67 | 167 | 2.0 | 5.0 | 0.00 | 0.02 | 0.01 | 44 | 1005.8 |
| 20260503222247 | 66 | 154 | 2.0 | 5.0 | 0.00 | 0.02 | 0.01 | 44 | 1005.9 |
| 20260503221347 | 67 | 183 | 2.0 | 8.0 | 0.00 | 0.02 | 0.01 | 42 | 1006.0 |
| 20260503214647 | 67 | 164 | 2.0 | 4.0 | 0.00 | 0.02 | 0.01 | 45 | 1006.2 |
| 20260503212847 | 66 | 141 | 2.0 | 4.0 | 0.00 | 0.02 | 0.01 | 44 | 1006.5 |
| 20260503211946 | 65 | 171 | 2.0 | 5.0 | 0.00 | 0.02 | 0.01 | 46 | 1006.7 |
| 20260503211046 | 64 | 167 | 2.0 | 7.0 | 0.00 | 0.02 | 0.01 | 45 | 1006.8 |
| 20260503210147 | 65 | 171 | 2.0 | 6.0 | 0.00 | 0.02 | 0.01 | 45 | 1007.1 |
| 20260503205246 | 64 | 149 | 2.0 | 8.0 | 0.00 | 0.02 | 0.01 | 44 | 1007.2 |
| 20260503204346 | 63 | 176 | 2.0 | 6.0 | 0.00 | 0.02 | 0.01 | 44 | 1007.4 |
| 20260503203446 | 63 | 183 | 2.0 | 6.0 | 0.00 | 0.02 | 0.01 | 44 | 1007.6 |
| 20260503202546 | 63 | 149 | 2.0 | 7.0 | 0.00 | 0.02 | 0.01 | 45 | 1007.7 |
| 20260503201646 | 64 | 170 | 3.0 | 7.0 | 0.00 | 0.02 | 0.01 | 43 | 1007.8 |
| 20260503200746 | 64 | 158 | 3.0 | 8.0 | 0.00 | 0.02 | 0.01 | 45 | 1007.7 |
| 20260503195846 | 65 | 157 | 3.0 | 7.0 | 0.00 | 0.02 | 0.01 | 45 | 1007.9 |
| 20260503194946 | 65 | 158 | 3.0 | 10.0 | 0.00 | 0.02 | 0.01 | 46 | 1007.9 |
| 20260503194046 | 64 | 175 | 3.0 | 9.0 | 0.00 | 0.02 | 0.01 | 48 | 1008.0 |
| 20260503193146 | 64 | 169 | 2.0 | 6.0 | 0.00 | 0.02 | 0.01 | 53 | 1008.1 |
| 20260503192246 | 63 | 153 | 3.0 | 10.0 | 0.00 | 0.02 | 0.01 | 51 | 1008.2 |
| 20260503191346 | 62 | 150 | 3.0 | 8.0 | 0.00 | 0.02 | 0.01 | 56 | 1008.4 |
| 20260503190447 | 61 | 148 | 2.0 | 8.0 | 0.00 | 0.02 | 0.01 | 59 | 1008.5 |
| 20260503185547 | 60 | 151 | 2.0 | 4.0 | 0.00 | 0.02 | 0.01 | 62 | 1008.7 |
| 20260503184647 | 59 | 147 | 2.0 | 6.0 | 0.00 | 0.02 | 0.01 | 64 | 1009.1 |
| 20260503183747 | 58 | 134 | 2.0 | 7.0 | 0.00 | 0.02 | 0.01 | 68 | 1009.1 |
| 20260503182846 | 56 | 169 | 2.0 | 8.0 | 0.00 | 0.02 | 0.01 | 68 | 1009.3 |
| 20260503181946 | 55 | 155 | 2.0 | 5.0 | 0.00 | 0.02 | 0.01 | 70 | 1009.5 |
| 20260503181046 | 54 | 165 | 2.0 | 6.0 | 0.00 | 0.02 | 0.01 | 68 | 1009.8 |
| 20260503180147 | 52 | 141 | 2.0 | 5.0 | 0.00 | 0.02 | 0.01 | 64 | 1010.0 |
| 20260503174346 | 50 | 137 | 2.0 | 3.0 | 0.00 | 0.03 | 0.01 | 60 | 1010.4 |
| 20260503173446 | 49 | 142 | 1.0 | 3.0 | 0.00 | 0.03 | 0.01 | 59 | 1011.1 |
| 20260503172546 | 49 | 153 | 1.0 | 3.0 | 0.00 | 0.03 | 0.01 | 60 | 1011.4 |
| 20260503171646 | 49 | 143 | 1.0 | 5.0 | 0.00 | 0.03 | 0.01 | 61 | 1011.7 |
| 20260503150146 | 53 | 156 | 1.0 | 4.0 | 0.00 | 0.04 | 0.01 | 61 | 1013.3 |
| 20260503131347 | 48 | 189 | 1.0 | 3.0 | 0.00 | 0.08 | 0.01 | 66 | 1013.9 |
| 20260503130449 | 48 | 198 | 1.0 | 2.0 | 0.00 | 0.08 | 0.01 | 67 | 1014.1 |
| 20260503120147 | 45 | 199 | 1.0 | 3.0 | 0.01 | 0.08 | 0.01 | 69 | 1014.0 |
| 20260503080730 | 43 | 99 | 0.0 | 2.0 | 0.00 | 0.07 | 0.00 | 66 | 1014.5 |
| 20260503072230 | 43 | 0 | 0.0 | 0.0 | 0.00 | 0.07 | 0.00 | 66 | 1014.5 |
| 20260503072104 | 43 | 0 | 0.0 | 0.0 | 0.00 | 0.07 | 0.00 | 66 | 1014.4 |
| 20260503071210 | 43 | 91 | 0.0 | 1.0 | 0.00 | 0.07 | 0.00 | 65 | 1014.5 |
| 20260503060131 | 43 | 91 | 0.0 | 1.0 | 0.00 | 0.07 | 0.00 | 64 | 1015.1 |
| 20260503054331 | 43 | 91 | 0.0 | 1.0 | 0.00 | 0.07 | 0.00 | 64 | 1015.2 |
| 20260503053431 | 43 | 91 | 0.0 | 1.0 | 0.00 | 0.07 | 0.00 | 65 | 1015.3 |
| 20260503052530 | 43 | 0 | 0.0 | 0.0 | 0.00 | 0.07 | 0.00 | 66 | 1015.4 |
| 20260503051631 | 43 | 0 | 0.0 | 0.0 | 0.00 | 0.07 | 0.00 | 66 | 1015.5 |
| 20260503050731 | 43 | 0 | 0.0 | 0.0 | 0.00 | 0.07 | 0.00 | 65 | 1015.5 |
| 20260503045831 | 43 | 0 | 0.0 | 0.0 | 0.00 | 0.07 | 0.07 | 65 | 1015.5 |
| 20260503044931 | 43 | 0 | 0.0 | 0.0 | 0.00 | 0.07 | 0.07 | 65 | 1015.5 |
| 20260503044030 | 43 | 0 | 0.0 | 0.0 | 0.00 | 0.07 | 0.07 | 65 | 1015.5 |
| 20260503043131 | 43 | 0 | 0.0 | 0.0 | 0.00 | 0.07 | 0.07 | 65 | 1015.5 |
| 20260503042231 | 44 | 0 | 0.0 | 0.0 | 0.00 | 0.07 | 0.07 | 65 | 1015.5 |
| 20260503040431 | 44 | 91 | 0.0 | 1.0 | 0.00 | 0.07 | 0.07 | 65 | 1015.7 |
| 20260503035530 | 44 | 0 | 0.0 | 0.0 | 0.00 | 0.07 | 0.07 | 64 | 1015.7 |
| 20260503034631 | 44 | 0 | 0.0 | 0.0 | 0.00 | 0.07 | 0.07 | 65 | 1015.7 |
| 20260503032831 | 44 | 0 | 0.0 | 0.0 | 0.00 | 0.07 | 0.07 | 64 | 1015.7 |
| 20260503030131 | 45 | 0 | 0.0 | 0.0 | 0.00 | 0.07 | 0.07 | 64 | 1015.8 |
| 20260503025231 | 45 | 0 | 0.0 | 0.0 | 0.00 | 0.07 | 0.07 | 63 | 1015.9 |
| 20260503024331 | 46 | 0 | 0.0 | 0.0 | 0.00 | 0.07 | 0.07 | 62 | 1015.9 |
| 20260503023431 | 46 | 0 | 0.0 | 0.0 | 0.00 | 0.07 | 0.07 | 61 | 1015.9 |
| 20260503015832 | 48 | 0 | 0.0 | 0.0 | 0.00 | 0.07 | 0.07 | 56 | 1015.8 |
| 20260503014931 | 48 | 0 | 0.0 | 0.0 | 0.00 | 0.07 | 0.07 | 54 | 1015.7 |
| 20260503014030 | 49 | 0 | 0.0 | 0.0 | 0.00 | 0.07 | 0.07 | 53 | 1015.6 |
| 20260503013131 | 50 | 0 | 0.0 | 0.0 | 0.00 | 0.07 | 0.07 | 51 | 1015.6 |
| 20260503011331 | 51 | 0 | 0.0 | 0.0 | 0.00 | 0.07 | 0.07 | 46 | 1015.7 |
| 20260503010430 | 52 | 91 | 0.0 | 1.0 | 0.01 | 0.07 | 0.07 | 45 | 1015.7 |
| 20260503004630 | 53 | 82 | 0.0 | 1.0 | 0.01 | 0.07 | 0.07 | 42 | 1015.6 |
| 20260503003730 | 53 | 61 | 0.0 | 1.0 | 0.01 | 0.07 | 0.07 | 41 | 1015.7 |
| 20260503002830 | 54 | 318 | 0.0 | 2.0 | 0.01 | 0.07 | 0.07 | 40 | 1015.6 |